Weather History for Holguin, Cuba

Change the Weather History Date:

Saturday, August 9, 2014

  Actual Average Record
Temperature  
Mean Temperature 82 °F -  
Max Temperature 91 °F 90 °F 95 °F (1998)
Min Temperature 73 °F 73 °F 32 °F (2010)
Cooling Degree Days 17    
Growing Degree Days 32 (Base 50)    
Moisture  
Dew Point 71 °F    
Average Humidity 70    
Maximum Humidity 94    
Minimum Humidity 43    
Precipitation  
Precipitation 0.00 in - - ()
Sea Level Pressure  
Sea Level Pressure 30.02 in    
Wind  
Wind Speed 7 mph ()    
Max Wind Speed 17 mph    
Max Gust Speed -    
Visibility 5.7 miles    
Events Fog , Thunderstorm    
Averages and records for this station are not official NWS values.
T = Trace of Precipitation, MM = Missing Value Source: Averaged Metar Reports

Daily Weather History Graph

Daily Weather History Graph

Search for Another Location

Airport:

Trip Planner

Search our weather history database for the weather conditions in past years. The results will help you decide how hot, cold, wet, or windy it might be!

Date:

Astronomy

Aug. 09, 2014 Rise Set
Actual Time 6:42 AM CDT 7:38 PM CDT
Civil Twilight 6:19 AM CDT 8:02 PM CDT
Nautical Twilight 5:51 AM CDT 8:29 PM CDT
Astronomical Twilight 5:23 AM CDT 8:57 PM CDT
Moon 6:41 PM CDT (8/9) 5:21 AM CDT (8/9)
Length of Visible Light 13h 43m
Length of Day
12h 56m
Waxing Gibbous, 98% of the Moon is Illuminated
Aug 9
Waxing Gibbous
Aug 10
Full
Aug 17
Last Quarter
Aug 25
New
Sep 2
First Quarter

Hourly Weather History & Observations

Time (CDT) Temp. Heat Index Dew Point Humidity Pressure Visibility Wind Dir Wind Speed Gust Speed Precip Events Conditions
12:58 AM 77.0 °F - 71.6 °F 83% 30.06 in - Calm Calm - N/A   Clear
1:50 AM 75.2 °F - 71.6 °F 89% 30.06 in 6.2 mi ENE 2.3 mph - N/A   Scattered Clouds
2:51 AM 77.0 °F - 73.4 °F 89% 30.04 in 6.2 mi ENE 4.6 mph - N/A   Partly Cloudy
3:50 AM 75.2 °F - 71.6 °F 89% 30.01 in 6.2 mi Variable 2.3 mph - N/A   Partly Cloudy
4:51 AM 75.2 °F - 71.6 °F 89% 30.01 in 5.0 mi NNE 2.3 mph - N/A Fog Fog
5:50 AM 73.4 °F - 69.8 °F 88% 30.01 in 4.3 mi NE 3.5 mph - N/A Fog Fog
6:56 AM 73.4 °F - 71.6 °F 94% 30.01 in 4.3 mi East 3.5 mph - N/A Fog Fog
7:50 AM 77.0 °F - 73.4 °F 89% 30.01 in 5.6 mi East 3.5 mph - N/A   Partly Cloudy
8:50 AM 80.6 °F 85.4 °F 73.4 °F 79% 30.04 in 5.6 mi ENE 10.4 mph - N/A   Partly Cloudy
9:53 AM 86.0 °F 91.8 °F 71.6 °F 62% 30.04 in 6.2 mi East 12.7 mph - N/A   Scattered Clouds
10:50 AM 87.8 °F 93.8 °F 71.6 °F 58% 30.04 in 6.2 mi East 13.8 mph - N/A   Scattered Clouds
11:52 AM 87.8 °F 93.8 °F 71.6 °F 58% 30.04 in 6.2 mi East 15.0 mph - N/A   Scattered Clouds
12:52 PM 89.6 °F 93.4 °F 68.0 °F 49% 30.04 in 6.2 mi East 16.1 mph - N/A   Mostly Cloudy
1:50 PM 91.4 °F 95.4 °F 68.0 °F 46% 30.01 in 6.2 mi East 15.0 mph - N/A   Scattered Clouds
2:50 PM 91.4 °F 94.0 °F 66.2 °F 43% 29.98 in 6.2 mi ENE 17.3 mph - N/A   Scattered Clouds
3:52 PM 89.6 °F 93.4 °F 68.0 °F 49% 29.98 in 6.2 mi East 13.8 mph - N/A   Scattered Clouds
4:50 PM 89.6 °F 93.4 °F 68.0 °F 49% 29.98 in 6.2 mi East 12.7 mph - N/A   Scattered Clouds
5:50 PM 89.6 °F 93.4 °F 68.0 °F 49% 29.95 in 6.2 mi East 16.1 mph - N/A   Scattered Clouds
6:55 PM 86.0 °F 89.4 °F 68.0 °F 55% 29.98 in 6.2 mi East 17.3 mph - N/A   Scattered Clouds
7:55 PM 84.2 °F 89.6 °F 71.6 °F 66% 30.01 in 5.6 mi East 13.8 mph - N/A   Mostly Cloudy
8:50 PM 82.4 °F 87.2 °F 71.6 °F 70% 30.01 in 5.6 mi East 8.1 mph - N/A   Mostly Cloudy
9:50 PM 80.6 °F 84.6 °F 71.6 °F 74% 30.01 in 5.6 mi ENE 8.1 mph - N/A   Scattered Clouds
10:51 PM 80.6 °F 85.4 °F 73.4 °F 79% 30.04 in 5.0 mi ENE 6.9 mph - N/A Thunderstorm Thunderstorm
11:50 PM 80.6 °F 85.4 °F 73.4 °F 79% 30.04 in 5.0 mi East 11.5 mph - N/A Thunderstorm Partly Cloudy